Vorticity
8 9 8 8 10 16 15 28 6 15 11 7 16 32 31 18 1 4 5 4 6 4 32 1 -6 -9 3 13 3 8 9 11 -0 2 -1 4 3 10
17 16 16 17 15 13 16 17 29 6 12 9 2 3 0 22 32 22 1 5 1 0 11 22 14 25 -4 1 7 7 3 9 3 1 3 3 4 14
14 13 20 21 24 22 21 19 17 28 11 4 12 9 10 5 2 11 23 17 9 9 8 3 9 1 18 5 -0 7 8 -1 8 4 1 5 9 10
13 10 16 23 27 25 17 17 13 12 34 9 5 8 11 11 12 11 12 16 23 12 4 2 1 5 3 15 5 9 13 8 5 6 8 10 7 -3
8 5 15 22 26 19 10 14 12 8 22 38 9 3 6 9 13 10 7 11 9 23 18 13 13 12 6 8 11 7 7 5 3 7 7 9 9 1
13 9 29 19 14 8 23 3 21 17 12 15 20 15 6 10 9 12 15 14 12 14 10 10 19 12 16 8 3 4 5 7 9 18 22 21 12 13
10 12 9 16 13 13 12 12 16 9 17 16 14 11 11 13 16 16 12 12 7 11 6 16 7 6 5 7 13 18 16 10 9 3 14 22 16 16
6 9 11 10 8 6 8 12 13 12 12 10 15 14 11 11 13 14 17 7 15 4 16 11 27 -1 8 7 4 2 9 7 1 6 7 8 10 12
5 1 16 9 11 11 9 9 11 10 9 11 10 13 16 13 14 13 16 18 13 15 10 8 20 15 18 15 16 12 12 18 8 12 12 12 3 7
7 7 2 16 5 5 7 10 10 11 10 11 11 10 11 13 11 14 11 9 12 12 29 23 22 21 21 17 12 14 17 22 17 11 9 15 16 12
11 9 8 8 6 16 2 8 10 13 12 10 9 10 8 7 7 11 9 9 7 6 4 12 11 11 9 19 15 10 -1 6 13 8 17 19 10 -2
15 10 10 12 11 10 7 7 6 8 6 7 10 4 8 12 9 10 9 6 15 11 7 5 12 10 6 10 3 15 1 5 -12 18 5 8 13 8
27 14 13 10 6 8 11 9 8 10 6 7 4 12 5 12 11 15 10 13 13 8 10 1 19 24 8 32 6 -4 1 13 12 -6 11 25 15 -0
9 15 28 21 16 17 12 11 7 4 7 10 4 10 14 18 2 16 20 16 -5 23 -5 13 17 9 3 -8 6 12 20 21 17 10 6 4 2 2
12 17 6 0 15 30 19 14 13 22 12 8 22 7 5 1 3 11 -9 19 10 8 9 14 23 41 43 46 34 18 4 6 9 12 13 15 16 16
13 12 11 16 17 5 4 -1 6 8 8 18 43 17 13 23 41 33 29 32 44 44 37 17 12 10 10 10 11 15 15 15 15 12 12 15 18 18
11 11 12 12 11 13 14 16 17 18 18 14 14 15 13 13 14 13 12 11 11 11 12 13 13 13 14 14 13 13 12 14 13 12 13 15 18 17
10 11 12 12 11 11 11 10 9 10 10 11 11 11 12 12 11 11 11 10 10 11 11 11 11 10 8 10 9 12 13 12 13 16 17 17 20 15
9 10 10 11 11 11 11 12 11 10 10 11 11 10 8 8 9 9 10 10 10 10 10 9 9 9 10 10 9 11 11 13 14 15 14 16 15 12
12 11 11 11 11 12 12 12 12 12 12 11 11 11 11 10 9 8 8 8 9 10 10 10 10 11 12 12 12 9 12 13 14 16 17 17 12 13
11 12 12 11 12 12 11 12 11 12 11 11 11 11 12 12 12 11 11 10 10 11 11 11 11 12 11 10 12 10 11 12 14 15 14 13 12 13
8 11 11 11 11 11 11 12 12 12 11 12 11 11 12 12 12 12 13 13 12 12 13 12 11 10 11 11 12 11 12 14 14 12 11 11 12 15
11 11 12 12 12 12 12 12 13 13 13 13 12 12 12 12 13 13 14 14 13 11 11 11 11 10 11 11 12 13 14 13 12 12 12 13 14 13
Height
2992 2992 2990 2989 2988 2989 2991 2993 2995 2996 2999 3007 3010 3017 3023 3028 3035 3039 3040 3041 3044 3048 3053 3056 3060 3061 3064 3067 3069 3071 3074 3075 3077 3078 3079 3080 3080 3080
2983 2981 2979 2978 2977 2977 2979 2981 2983 2986 2987 2995 2999 3006 3009 3014 3020 3025 3029 3034 3036 3038 3040 3044 3049 3051 3054 3056 3059 3062 3064 3065 3067 3067 3069 3070 3071 3071
2974 2971 2969 2966 2964 2964 2966 2970 2971 2975 2977 2984 2989 2995 2999 3004 3009 3013 3017 3021 3025 3029 3032 3034 3037 3039 3043 3046 3047 3050 3052 3054 3055 3056 3058 3059 3060 3060
2965 2962 2959 2956 2954 2955 2957 2960 2962 2965 2967 2972 2978 2984 2988 2993 2998 3002 3006 3008 3011 3016 3019 3022 3025 3029 3033 3035 3036 3037 3041 3042 3044 3044 3045 3048 3049 3050
2958 2955 2953 2949 2949 2949 2951 2952 2955 2957 2959 2961 2967 2974 2980 2984 2987 2991 2994 2997 3000 3004 3007 3010 3014 3017 3020 3022 3024 3026 3029 3031 3033 3033 3033 3035 3036 3038
2952 2951 2948 2947 2946 2946 2944 2946 2947 2948 2952 2955 2959 2964 2970 2974 2977 2980 2983 2987 2991 2993 2996 2999 3002 3005 3007 3009 3012 3015 3016 3019 3019 3020 3019 3020 3022 3024
2948 2946 2945 2945 2944 2943 2943 2945 2945 2946 2948 2950 2953 2956 2960 2964 2967 2971 2973 2977 2979 2982 2985 2986 2990 2992 2994 2996 2999 3002 3004 3004 3006 3007 3007 3009 3010 3011
2944 2942 2941 2941 2941 2941 2941 2942 2943 2944 2945 2946 2948 2949 2952 2955 2959 2961 2963 2965 2968 2970 2973 2976 2977 2977 2981 2983 2986 2988 2990 2992 2994 2995 2997 2998 3000 3000
2937 2937 2937 2937 2937 2938 2938 2939 2939 2940 2941 2942 2943 2945 2946 2949 2951 2953 2955 2957 2958 2959 2962 2963 2966 2968 2969 2972 2974 2975 2978 2980 2982 2984 2985 2987 2987 2987
2930 2931 2931 2932 2932 2932 2933 2934 2934 2935 2936 2937 2937 2938 2939 2941 2942 2944 2946 2946 2947 2949 2950 2952 2955 2958 2960 2961 2963 2964 2966 2968 2970 2971 2971 2972 2973 2974
2925 2926 2927 2927 2927 2927 2926 2926 2928 2929 2930 2930 2931 2932 2932 2934 2935 2935 2936 2937 2938 2939 2942 2942 2945 2949 2952 2952 2953 2956 2957 2957 2958 2959 2958 2959 2961 2962
2918 2919 2920 2921 2921 2921 2921 2921 2921 2922 2923 2924 2924 2924 2925 2925 2926 2927 2927 2928 2929 2930 2932 2933 2937 2939 2940 2941 2942 2945 2946 2946 2947 2947 2947 2948 2950 2950
2917 2916 2915 2914 2914 2914 2914 2914 2914 2915 2915 2915 2916 2916 2916 2917 2917 2918 2918 2919 2920 2920 2922 2922 2925 2927 2928 2928 2932 2932 2934 2934 2934 2934 2935 2935 2936 2937
2914 2912 2911 2910 2908 2908 2907 2907 2906 2907 2906 2905 2906 2906 2906 2906 2907 2907 2909 2909 2910 2910 2911 2912 2913 2915 2916 2918 2920 2920 2921 2921 2921 2922 2922 2922 2923 2923
2912 2909 2907 2905 2904 2902 2901 2900 2899 2897 2897 2897 2898 2898 2898 2898 2900 2900 2899 2898 2898 2899 2901 2901 2901 2899 2900 2902 2904 2907 2908 2910 2909 2909 2908 2908 2910 2909
2909 2906 2903 2901 2899 2898 2897 2896 2894 2892 2890 2888 2887 2888 2890 2891 2890 2890 2889 2888 2887 2888 2890 2891 2892 2892 2894 2895 2897 2899 2898 2899 2899 2896 2894 2896 2898 2897
2903 2901 2900 2897 2894 2892 2890 2890 2889 2888 2887 2886 2884 2883 2882 2882 2883 2883 2882 2881 2882 2883 2884 2885 2886 2887 2887 2888 2889 2888 2889 2889 2889 2888 2888 2889 2888 2885
2898 2895 2894 2893 2890 2888 2886 2884 2882 2882 2882 2882 2881 2880 2879 2878 2877 2877 2877 2876 2876 2876 2877 2878 2879 2880 2881 2881 2881 2880 2880 2881 2879 2877 2875 2876 2879 2874
2892 2889 2888 2886 2884 2883 2881 2880 2879 2877 2875 2875 2876 2876 2875 2874 2873 2872 2872 2871 2871 2871 2871 2872 2872 2873 2873 2873 2872 2871 2870 2869 2869 2867 2864 2863 2867 2865
2885 2883 2881 2880 2878 2877 2876 2874 2873 2871 2870 2869 2869 2869 2870 2870 2869 2868 2868 2867 2867 2867 2865 2865 2866 2866 2866 2866 2864 2862 2860 2861 2859 2858 2855 2853 2852 2851
2877 2876 2874 2873 2872 2870 2869 2868 2867 2866 2866 2864 2862 2862 2862 2863 2863 2863 2863 2862 2861 2861 2860 2859 2859 2859 2859 2859 2857 2854 2851 2851 2848 2846 2844 2843 2841 2840
2871 2870 2867 2865 2864 2863 2863 2862 2861 2860 2859 2859 2858 2857 2856 2855 2855 2855 2856 2856 2855 2855 2853 2852 2851 2851 2850 2849 2849 2846 2841 2839 2838 2835 2834 2833 2831 2829
2863 2862 2860 2859 2858 2856 2856 2855 2854 2854 2853 2852 2851 2851 2851 2850 2848 2848 2847 2847 2848 2848 2847 2845 2844 2843 2843 2842 2840 2838 2836 2833 2830 2827 2824 2823 2820 2817